Year,Month,Day,Hour,Minute,Value (Times are PST for windspeed in km/hr)
2015,11,18,00,00,0.00
2015,11,18,00,01,0.00
2015,11,18,00,02,0.00
2015,11,18,00,03,3.20
2015,11,18,00,04,0.90
2015,11,18,00,05,0.00
2015,11,18,00,06,0.00
2015,11,18,00,07,0.00
2015,11,18,00,08,0.00
2015,11,18,00,09,0.00
2015,11,18,00,10,1.00
2015,11,18,00,11,0.10
2015,11,18,00,12,0.00
2015,11,18,00,13,0.00
2015,11,18,00,14,0.00
2015,11,18,00,15,0.00
2015,11,18,00,16,0.00
2015,11,18,00,17,0.00
2015,11,18,00,18,0.00
2015,11,18,00,19,0.00
2015,11,18,00,20,0.00
2015,11,18,00,21,0.00
2015,11,18,00,22,1.00
2015,11,18,00,23,0.00
2015,11,18,00,24,0.80
2015,11,18,00,25,4.30
2015,11,18,00,26,5.80
2015,11,18,00,27,1.40
2015,11,18,00,28,2.80
2015,11,18,00,29,0.80
2015,11,18,00,30,0.00
2015,11,18,00,31,1.00
2015,11,18,00,32,1.10
2015,11,18,00,33,0.00
2015,11,18,00,34,0.00
2015,11,18,00,35,0.10
2015,11,18,00,36,0.00
2015,11,18,00,37,0.20
2015,11,18,00,38,4.80
2015,11,18,00,39,4.20
2015,11,18,00,40,4.30
2015,11,18,00,41,4.60
2015,11,18,00,42,2.00
2015,11,18,00,43,0.90
2015,11,18,00,44,2.30
2015,11,18,00,45,1.20
2015,11,18,00,46,0.00
2015,11,18,00,47,0.00
2015,11,18,00,48,0.00
2015,11,18,00,49,3.60
2015,11,18,00,50,4.70
2015,11,18,00,51,4.40
2015,11,18,00,52,1.10
2015,11,18,00,53,1.40
2015,11,18,00,54,3.50
2015,11,18,00,55,3.30
2015,11,18,00,56,3.20
2015,11,18,00,57,3.70
2015,11,18,00,58,0.50
2015,11,18,00,59,0.00
2015,11,18,01,00,2.60
2015,11,18,01,01,3.20
2015,11,18,01,02,4.20
2015,11,18,01,03,4.50
2015,11,18,01,04,4.10
2015,11,18,01,05,3.20
2015,11,18,01,06,3.30
2015,11,18,01,07,2.30
2015,11,18,01,08,4.30
2015,11,18,01,09,3.70
2015,11,18,01,10,3.70
2015,11,18,01,11,1.30
2015,11,18,01,12,2.00
2015,11,18,01,13,1.80
2015,11,18,01,14,2.90
2015,11,18,01,15,3.70
2015,11,18,01,16,2.50
2015,11,18,01,17,3.80
2015,11,18,01,18,3.40
2015,11,18,01,19,1.70
2015,11,18,01,20,1.20
2015,11,18,01,21,2.30
2015,11,18,01,22,3.30
2015,11,18,01,23,2.50
2015,11,18,01,24,2.50
2015,11,18,01,25,3.00
2015,11,18,01,26,3.70
2015,11,18,01,27,6.60
2015,11,18,01,28,5.40
2015,11,18,01,29,4.00
2015,11,18,01,30,4.60
2015,11,18,01,31,5.10
2015,11,18,01,32,4.40
2015,11,18,01,33,5.00
2015,11,18,01,34,3.00
2015,11,18,01,35,2.40
2015,11,18,01,36,2.70
2015,11,18,01,37,3.80
2015,11,18,01,38,5.10
2015,11,18,01,39,6.00
2015,11,18,01,40,5.40
2015,11,18,01,41,4.70
2015,11,18,01,42,4.90
2015,11,18,01,43,5.00
2015,11,18,01,44,4.70
2015,11,18,01,45,4.50
2015,11,18,01,46,5.10
2015,11,18,01,47,5.20
2015,11,18,01,48,5.00
2015,11,18,01,49,3.70
2015,11,18,01,50,3.80
2015,11,18,01,51,4.20
2015,11,18,01,52,2.70
2015,11,18,01,53,2.40
2015,11,18,01,54,4.30
2015,11,18,01,55,4.20
2015,11,18,01,56,4.10
2015,11,18,01,57,3.70
2015,11,18,01,58,1.20
2015,11,18,01,59,0.00
2015,11,18,02,00,1.10
2015,11,18,02,01,2.80
2015,11,18,02,02,3.00
2015,11,18,02,03,2.20
2015,11,18,02,04,0.90
2015,11,18,02,05,0.00
2015,11,18,02,06,0.60
2015,11,18,02,07,1.90
2015,11,18,02,08,0.10
2015,11,18,02,09,0.60
2015,11,18,02,10,0.00
2015,11,18,02,11,0.00
2015,11,18,02,12,0.00
2015,11,18,02,13,0.00
2015,11,18,02,14,0.00
2015,11,18,02,15,0.00
2015,11,18,02,16,0.00
2015,11,18,02,17,1.70
2015,11,18,02,18,1.10
2015,11,18,02,19,0.10
2015,11,18,02,20,0.00
2015,11,18,02,21,0.20
2015,11,18,02,22,1.30
2015,11,18,02,23,2.80
2015,11,18,02,24,0.70
2015,11,18,02,25,0.00
2015,11,18,02,26,0.00
2015,11,18,02,27,0.00
2015,11,18,02,28,0.00
2015,11,18,02,29,0.00
2015,11,18,02,30,0.00
2015,11,18,02,31,0.00
2015,11,18,02,32,0.00
2015,11,18,02,33,0.00
2015,11,18,02,34,0.00
2015,11,18,02,35,0.00
2015,11,18,02,36,0.00
2015,11,18,02,37,0.30
2015,11,18,02,38,3.70
2015,11,18,02,39,3.50
2015,11,18,02,40,1.80
2015,11,18,02,41,3.30
2015,11,18,02,42,3.90
2015,11,18,02,43,1.30
2015,11,18,02,44,1.20
2015,11,18,02,45,4.70
2015,11,18,02,46,5.40
2015,11,18,02,47,4.70
2015,11,18,02,48,4.50
2015,11,18,02,49,5.30
2015,11,18,02,50,4.90
2015,11,18,02,51,4.60
2015,11,18,02,52,3.30
2015,11,18,02,53,1.20
2015,11,18,02,54,0.30
2015,11,18,02,55,0.60
2015,11,18,02,56,2.40
2015,11,18,02,57,2.20
2015,11,18,02,58,0.30
2015,11,18,02,59,1.40
2015,11,18,03,00,1.70
2015,11,18,03,01,0.10
2015,11,18,03,02,0.00
2015,11,18,03,03,0.00
2015,11,18,03,04,0.70
2015,11,18,03,05,2.40
2015,11,18,03,06,0.10
2015,11,18,03,07,0.70
2015,11,18,03,08,1.50
2015,11,18,03,09,2.20
2015,11,18,03,10,2.80
2015,11,18,03,11,0.30
2015,11,18,03,12,0.40
2015,11,18,03,13,2.90
2015,11,18,03,14,1.80
2015,11,18,03,15,1.40
2015,11,18,03,16,1.70
2015,11,18,03,17,0.60
2015,11,18,03,18,0.80
2015,11,18,03,19,3.10
2015,11,18,03,20,2.80
2015,11,18,03,21,2.90
2015,11,18,03,22,2.90
2015,11,18,03,23,2.50
2015,11,18,03,24,1.30
2015,11,18,03,25,0.20
2015,11,18,03,26,0.00
2015,11,18,03,27,0.00
2015,11,18,03,28,0.00
2015,11,18,03,29,0.00
2015,11,18,03,30,0.00
2015,11,18,03,31,0.00
2015,11,18,03,32,0.00
2015,11,18,03,33,0.00
2015,11,18,03,34,0.00
2015,11,18,03,35,0.00
2015,11,18,03,36,0.00
2015,11,18,03,37,0.00
2015,11,18,03,38,0.00
2015,11,18,03,39,0.00
2015,11,18,03,40,0.00
2015,11,18,03,41,0.00
2015,11,18,03,42,0.00
2015,11,18,03,43,0.00
2015,11,18,03,44,0.00
2015,11,18,03,45,0.00
2015,11,18,03,46,0.00
2015,11,18,03,47,0.00
2015,11,18,03,48,0.00
2015,11,18,03,49,0.00
2015,11,18,03,50,0.00
2015,11,18,03,51,0.00
2015,11,18,03,52,0.00
2015,11,18,03,53,0.00
2015,11,18,03,54,1.00
2015,11,18,03,55,2.60
2015,11,18,03,56,1.40
2015,11,18,03,57,1.00
2015,11,18,03,58,2.60
2015,11,18,03,59,2.50
2015,11,18,04,00,2.50
2015,11,18,04,01,4.50
2015,11,18,04,02,4.60
2015,11,18,04,03,4.20
2015,11,18,04,04,3.60
2015,11,18,04,05,2.50
2015,11,18,04,06,3.60
2015,11,18,04,07,3.60
2015,11,18,04,08,3.50
2015,11,18,04,09,3.40
2015,11,18,04,10,2.10
2015,11,18,04,11,3.90
2015,11,18,04,12,4.70
2015,11,18,04,13,5.90
2015,11,18,04,14,3.80
2015,11,18,04,15,3.20
2015,11,18,04,16,5.30
2015,11,18,04,17,2.50
2015,11,18,04,18,1.10
2015,11,18,04,19,2.80
2015,11,18,04,20,3.60
2015,11,18,04,21,2.70
2015,11,18,04,22,5.00
2015,11,18,04,23,5.90
2015,11,18,04,24,6.40
2015,11,18,04,25,6.00
2015,11,18,04,26,4.60
2015,11,18,04,27,5.50
2015,11,18,04,28,6.20
2015,11,18,04,29,2.70
2015,11,18,04,30,2.20
2015,11,18,04,31,1.50
2015,11,18,04,32,1.40
2015,11,18,04,33,0.40
2015,11,18,04,34,0.30
2015,11,18,04,35,0.00
2015,11,18,04,36,0.10
2015,11,18,04,37,0.20
2015,11,18,04,38,1.50
2015,11,18,04,39,1.80
2015,11,18,04,40,0.10
2015,11,18,04,41,0.00
2015,11,18,04,42,0.00
2015,11,18,04,43,0.00
2015,11,18,04,44,0.00
2015,11,18,04,45,0.00
2015,11,18,04,46,0.00
2015,11,18,04,47,0.00
2015,11,18,04,48,0.00
2015,11,18,04,49,0.00
2015,11,18,04,50,0.00
2015,11,18,04,51,0.00
2015,11,18,04,52,0.10
2015,11,18,04,53,0.20
2015,11,18,04,54,1.40
2015,11,18,04,55,1.40
2015,11,18,04,56,3.20
2015,11,18,04,57,4.80
2015,11,18,04,58,1.00
2015,11,18,04,59,0.00
2015,11,18,05,00,0.10
2015,11,18,05,01,0.20
2015,11,18,05,02,2.10
2015,11,18,05,03,1.20
2015,11,18,05,04,0.00
2015,11,18,05,05,0.00
2015,11,18,05,06,0.00
2015,11,18,05,07,0.00
2015,11,18,05,08,2.70
2015,11,18,05,09,4.00
2015,11,18,05,10,3.90
2015,11,18,05,11,2.80
2015,11,18,05,12,2.20
2015,11,18,05,13,2.50
2015,11,18,05,14,1.90
2015,11,18,05,15,0.00
2015,11,18,05,16,0.00
2015,11,18,05,17,0.00
2015,11,18,05,18,0.00
2015,11,18,05,19,0.00
2015,11,18,05,20,2.40
2015,11,18,05,21,3.50
2015,11,18,05,22,0.90
2015,11,18,05,23,0.50
2015,11,18,05,24,3.30
2015,11,18,05,25,2.50
2015,11,18,05,26,4.10
2015,11,18,05,27,4.30
2015,11,18,05,28,4.40
2015,11,18,05,29,5.30
2015,11,18,05,30,6.40
2015,11,18,05,31,5.30
2015,11,18,05,32,4.00
2015,11,18,05,33,0.20
2015,11,18,05,34,0.00
2015,11,18,05,35,0.00
2015,11,18,05,36,0.00
2015,11,18,05,37,0.00
2015,11,18,05,38,0.00
2015,11,18,05,39,0.00
2015,11,18,05,40,0.20
2015,11,18,05,41,4.30
2015,11,18,05,42,3.70
2015,11,18,05,43,4.90
2015,11,18,05,44,3.60
2015,11,18,05,45,2.00
2015,11,18,05,46,1.70
2015,11,18,05,47,2.30
2015,11,18,05,48,0.80
2015,11,18,05,49,0.00
2015,11,18,05,50,0.00
2015,11,18,05,51,0.00
2015,11,18,05,52,0.00
2015,11,18,05,53,0.00
2015,11,18,05,54,0.00
2015,11,18,05,55,0.00
2015,11,18,05,56,0.60
2015,11,18,05,57,2.00
2015,11,18,05,58,0.10
2015,11,18,05,59,0.00
2015,11,18,06,00,0.00
2015,11,18,06,01,0.00
2015,11,18,06,02,0.00
2015,11,18,06,03,0.00
2015,11,18,06,04,0.00
2015,11,18,06,05,0.00
2015,11,18,06,06,0.00
2015,11,18,06,07,0.00
2015,11,18,06,08,0.00
2015,11,18,06,09,0.00
2015,11,18,06,10,0.00
2015,11,18,06,11,0.00
2015,11,18,06,12,0.00
2015,11,18,06,13,0.00
2015,11,18,06,14,0.00
2015,11,18,06,15,0.00
2015,11,18,06,16,0.00
2015,11,18,06,17,0.00
2015,11,18,06,18,0.30
2015,11,18,06,19,0.00
2015,11,18,06,20,1.10
2015,11,18,06,21,1.90
2015,11,18,06,22,1.10
2015,11,18,06,23,2.00
2015,11,18,06,24,4.30
2015,11,18,06,25,3.20
2015,11,18,06,26,4.70
2015,11,18,06,27,5.60
2015,11,18,06,28,4.90
2015,11,18,06,29,5.00
2015,11,18,06,30,4.70
2015,11,18,06,31,4.80
2015,11,18,06,32,4.20
2015,11,18,06,33,4.30
2015,11,18,06,34,3.00
2015,11,18,06,35,2.10
2015,11,18,06,36,0.10
2015,11,18,06,37,0.00
2015,11,18,06,38,0.10
2015,11,18,06,39,3.70
2015,11,18,06,40,4.60
2015,11,18,06,41,4.70
2015,11,18,06,42,5.40
2015,11,18,06,43,5.10
2015,11,18,06,44,2.30
2015,11,18,06,45,2.00
2015,11,18,06,46,3.70
2015,11,18,06,47,5.10
2015,11,18,06,48,5.90
2015,11,18,06,49,1.10
2015,11,18,06,50,1.90
2015,11,18,06,51,1.00
2015,11,18,06,52,5.00
2015,11,18,06,53,2.90
2015,11,18,06,54,0.00
2015,11,18,06,55,0.20
2015,11,18,06,56,2.40
2015,11,18,06,57,0.60
2015,11,18,06,58,0.30
2015,11,18,06,59,0.90
2015,11,18,07,00,4.30
2015,11,18,07,01,3.70
2015,11,18,07,02,0.40
2015,11,18,07,03,2.50
2015,11,18,07,04,4.80
2015,11,18,07,05,0.40
2015,11,18,07,06,0.20
2015,11,18,07,07,2.00
2015,11,18,07,08,0.30
2015,11,18,07,09,0.00
2015,11,18,07,10,0.00
2015,11,18,07,11,0.90
2015,11,18,07,12,0.00
2015,11,18,07,13,0.00
2015,11,18,07,14,0.00
2015,11,18,07,15,0.00
2015,11,18,07,16,0.00
2015,11,18,07,17,0.00
2015,11,18,07,18,0.00
2015,11,18,07,19,0.00
2015,11,18,07,20,0.00
2015,11,18,07,21,0.00
2015,11,18,07,22,0.00
2015,11,18,07,23,0.00
2015,11,18,07,24,0.00
2015,11,18,07,25,0.00
2015,11,18,07,26,0.00
2015,11,18,07,27,0.00
2015,11,18,07,28,0.00
2015,11,18,07,29,0.00
2015,11,18,07,30,0.00
2015,11,18,07,31,0.00
2015,11,18,07,32,0.00
2015,11,18,07,33,0.00
2015,11,18,07,34,0.00
2015,11,18,07,35,0.00
2015,11,18,07,36,0.00
2015,11,18,07,37,0.00
2015,11,18,07,38,0.00
2015,11,18,07,39,0.00
2015,11,18,07,40,0.00
2015,11,18,07,41,0.00
2015,11,18,07,42,0.00
2015,11,18,07,43,0.00
2015,11,18,07,44,0.00
2015,11,18,07,45,0.00
2015,11,18,07,46,0.00
2015,11,18,07,47,0.00
2015,11,18,07,48,0.00
2015,11,18,07,49,0.00
2015,11,18,07,50,0.00
2015,11,18,07,51,0.00
2015,11,18,07,52,0.00
2015,11,18,07,53,0.00
2015,11,18,07,54,0.00
2015,11,18,07,55,0.00
2015,11,18,07,56,0.00
2015,11,18,07,57,0.00
2015,11,18,07,58,0.00
2015,11,18,07,59,0.00
2015,11,18,08,00,0.00
2015,11,18,08,01,0.00
2015,11,18,08,02,0.00
2015,11,18,08,03,0.00
2015,11,18,08,04,0.00
2015,11,18,08,05,0.00
2015,11,18,08,06,3.00
2015,11,18,08,07,2.00
2015,11,18,08,08,3.20
2015,11,18,08,09,3.20
2015,11,18,08,10,2.50
2015,11,18,08,11,1.80
2015,11,18,08,12,1.40
2015,11,18,08,13,1.10
2015,11,18,08,14,0.00
2015,11,18,08,15,0.70
2015,11,18,08,16,0.90
2015,11,18,08,17,0.00
2015,11,18,08,18,0.00
2015,11,18,08,19,0.00
2015,11,18,08,20,2.30
2015,11,18,08,21,4.30
2015,11,18,08,22,3.40
2015,11,18,08,23,3.00
2015,11,18,08,24,2.00
2015,11,18,08,25,3.00
2015,11,18,08,26,2.30
2015,11,18,08,27,1.00
2015,11,18,08,28,0.30
2015,11,18,08,29,0.00
2015,11,18,08,30,0.00
2015,11,18,08,31,0.00
2015,11,18,08,32,0.00
2015,11,18,08,33,0.00
2015,11,18,08,34,1.40
2015,11,18,08,35,2.40
2015,11,18,08,36,2.80
2015,11,18,08,37,1.40
2015,11,18,08,38,0.00
2015,11,18,08,39,0.00
2015,11,18,08,40,0.00
2015,11,18,08,41,0.00
2015,11,18,08,42,0.00
2015,11,18,08,43,0.00
2015,11,18,08,44,0.00
2015,11,18,08,45,0.00
2015,11,18,08,46,0.00
2015,11,18,08,47,0.00
2015,11,18,08,48,0.00
2015,11,18,08,49,0.00
2015,11,18,08,50,0.00
2015,11,18,08,51,0.00
2015,11,18,08,52,0.00
2015,11,18,08,53,0.00
2015,11,18,08,54,0.00
2015,11,18,08,55,0.00
2015,11,18,08,56,0.00
2015,11,18,08,57,0.00
2015,11,18,08,58,0.00
2015,11,18,08,59,0.00
2015,11,18,09,00,0.00
2015,11,18,09,01,0.00
2015,11,18,09,02,0.00
2015,11,18,09,03,0.00
2015,11,18,09,04,0.00
2015,11,18,09,05,0.00
2015,11,18,09,06,0.00
2015,11,18,09,07,0.00
2015,11,18,09,08,0.00
2015,11,18,09,09,0.00
2015,11,18,09,10,0.00
2015,11,18,09,11,0.00
2015,11,18,09,12,0.00
2015,11,18,09,13,0.10
2015,11,18,09,14,1.40
2015,11,18,09,15,0.30
2015,11,18,09,16,0.00
2015,11,18,09,17,0.00
2015,11,18,09,18,0.20
2015,11,18,09,19,0.00
2015,11,18,09,20,0.00
2015,11,18,09,21,0.00
2015,11,18,09,22,0.00
2015,11,18,09,23,0.00
2015,11,18,09,24,0.00
2015,11,18,09,25,0.00
2015,11,18,09,26,0.00
2015,11,18,09,27,0.00
2015,11,18,09,28,0.20
2015,11,18,09,29,0.30
2015,11,18,09,30,0.00
2015,11,18,09,31,0.00
2015,11,18,09,32,0.00
2015,11,18,09,33,0.00
2015,11,18,09,34,0.00
2015,11,18,09,35,0.00
2015,11,18,09,36,0.00
2015,11,18,09,37,0.00
2015,11,18,09,38,0.00
2015,11,18,09,39,0.00
2015,11,18,09,40,0.00
2015,11,18,09,41,0.00
2015,11,18,09,42,0.00
2015,11,18,09,43,0.00
2015,11,18,09,44,0.00
2015,11,18,09,45,0.00
2015,11,18,09,46,0.00
2015,11,18,09,47,0.00
2015,11,18,09,48,0.00
2015,11,18,09,49,0.00
2015,11,18,09,50,0.00
2015,11,18,09,51,0.00
2015,11,18,09,52,0.00
2015,11,18,09,53,0.00
2015,11,18,09,54,0.00
2015,11,18,09,55,0.00
2015,11,18,09,56,0.00
2015,11,18,09,57,0.00
2015,11,18,09,58,0.00
2015,11,18,09,59,0.00
2015,11,18,10,00,0.00
2015,11,18,10,01,0.00
2015,11,18,10,02,0.00
2015,11,18,10,03,0.00
2015,11,18,10,04,0.00
2015,11,18,10,05,0.00
2015,11,18,10,06,0.00
2015,11,18,10,07,0.00
2015,11,18,10,08,0.00
2015,11,18,10,09,0.00
2015,11,18,10,10,0.00
2015,11,18,10,11,0.00
2015,11,18,10,12,0.00
2015,11,18,10,13,0.00
2015,11,18,10,14,0.00
2015,11,18,10,15,0.00
2015,11,18,10,16,0.00
2015,11,18,10,17,0.00
2015,11,18,10,18,0.00
2015,11,18,10,19,0.00
2015,11,18,10,20,0.00
2015,11,18,10,21,0.00
2015,11,18,10,22,0.00
2015,11,18,10,23,0.00
2015,11,18,10,24,0.00
2015,11,18,10,25,0.00
2015,11,18,10,26,0.00
2015,11,18,10,27,0.00
2015,11,18,10,28,0.00
2015,11,18,10,29,0.00
2015,11,18,10,30,0.00
2015,11,18,10,31,0.00
2015,11,18,10,32,0.00
2015,11,18,10,33,0.00
2015,11,18,10,34,0.00
2015,11,18,10,35,0.00
2015,11,18,10,36,0.00
2015,11,18,10,37,0.00
2015,11,18,10,38,0.00
2015,11,18,10,39,0.00
2015,11,18,10,40,0.00
2015,11,18,10,41,0.00
2015,11,18,10,42,0.00
2015,11,18,10,43,0.00
2015,11,18,10,44,0.00
2015,11,18,10,45,0.00
2015,11,18,10,46,0.00
2015,11,18,10,47,0.00
2015,11,18,10,48,0.00
2015,11,18,10,49,0.00
2015,11,18,10,50,0.00
2015,11,18,10,51,0.00
2015,11,18,10,52,0.00
2015,11,18,10,53,0.00
2015,11,18,10,54,0.00
2015,11,18,10,55,0.00
2015,11,18,10,56,0.00
2015,11,18,10,57,0.00
2015,11,18,10,58,0.00
2015,11,18,10,59,0.00
2015,11,18,11,00,0.00
2015,11,18,11,01,0.00
2015,11,18,11,02,3.40
2015,11,18,11,03,9.20
2015,11,18,11,04,7.40
2015,11,18,11,05,7.50
2015,11,18,11,06,5.70
2015,11,18,11,07,11.70
2015,11,18,11,08,9.50
2015,11,18,11,09,9.40
2015,11,18,11,10,13.30
2015,11,18,11,11,11.90
2015,11,18,11,12,6.90
2015,11,18,11,13,9.30
2015,11,18,11,14,12.50
2015,11,18,11,15,10.80
2015,11,18,11,16,6.40
2015,11,18,11,17,7.60
2015,11,18,11,18,9.40
2015,11,18,11,19,8.70
2015,11,18,11,20,11.20
2015,11,18,11,21,11.80
2015,11,18,11,22,3.70
2015,11,18,11,23,4.10
2015,11,18,11,24,5.30
2015,11,18,11,25,10.20
2015,11,18,11,26,11.30
2015,11,18,11,27,11.10
2015,11,18,11,28,11.80
2015,11,18,11,29,7.80
2015,11,18,11,30,6.70
2015,11,18,11,31,8.20
2015,11,18,11,32,19.10
2015,11,18,11,33,12.30
2015,11,18,11,34,5.10
2015,11,18,11,35,5.60
2015,11,18,11,36,3.60
2015,11,18,11,37,10.10
2015,11,18,11,38,11.90
2015,11,18,11,39,12.80
2015,11,18,11,40,13.80
2015,11,18,11,41,7.20
2015,11,18,11,42,7.80
2015,11,18,11,43,10.00
2015,11,18,11,44,6.20
2015,11,18,11,45,6.80
2015,11,18,11,46,6.10
2015,11,18,11,47,10.00
2015,11,18,11,48,4.30
2015,11,18,11,49,2.70
2015,11,18,11,50,4.40
2015,11,18,11,51,7.30
2015,11,18,11,52,6.30
2015,11,18,11,53,6.30
2015,11,18,11,54,10.50
2015,11,18,11,55,5.50
2015,11,18,11,56,12.60
2015,11,18,11,57,11.70
2015,11,18,11,58,5.80
2015,11,18,11,59,7.10
2015,11,18,12,00,13.90
2015,11,18,12,01,14.70
2015,11,18,12,02,14.90
2015,11,18,12,03,18.00
2015,11,18,12,04,12.40
2015,11,18,12,05,15.90
2015,11,18,12,06,13.20
2015,11,18,12,07,8.80
2015,11,18,12,08,4.60
2015,11,18,12,09,16.70
2015,11,18,12,10,7.40
2015,11,18,12,11,7.10
2015,11,18,12,12,5.60
2015,11,18,12,13,4.50
2015,11,18,12,14,10.20
2015,11,18,12,15,8.10
2015,11,18,12,16,10.60
2015,11,18,12,17,10.90
2015,11,18,12,18,8.70
2015,11,18,12,19,7.60
2015,11,18,12,20,5.60
2015,11,18,12,21,8.90
2015,11,18,12,22,6.40
2015,11,18,12,23,8.00
2015,11,18,12,24,8.00
2015,11,18,12,25,12.50
2015,11,18,12,26,7.00
2015,11,18,12,27,4.90
2015,11,18,12,28,7.50
2015,11,18,12,29,12.60
2015,11,18,12,30,9.70
2015,11,18,12,31,8.00
2015,11,18,12,32,10.80
2015,11,18,12,33,10.50
2015,11,18,12,34,10.80
2015,11,18,12,35,10.40
2015,11,18,12,36,13.90
2015,11,18,12,37,11.80
2015,11,18,12,38,9.40
2015,11,18,12,39,12.40
2015,11,18,12,40,12.00
2015,11,18,12,41,6.90
2015,11,18,12,42,6.70
2015,11,18,12,43,7.00
2015,11,18,12,44,8.10
2015,11,18,12,45,6.60
2015,11,18,12,46,9.10
2015,11,18,12,47,12.90
2015,11,18,12,48,16.30
2015,11,18,12,49,12.20
2015,11,18,12,50,12.30
2015,11,18,12,51,9.30
2015,11,18,12,52,11.20
2015,11,18,12,53,10.40
2015,11,18,12,54,7.50
2015,11,18,12,55,10.50
2015,11,18,12,56,6.80
2015,11,18,12,57,5.10
2015,11,18,12,58,3.90
2015,11,18,12,59,11.00
2015,11,18,13,00,8.20
2015,11,18,13,01,6.40
2015,11,18,13,02,2.10
2015,11,18,13,03,6.20
2015,11,18,13,04,7.90
2015,11,18,13,05,9.40
2015,11,18,13,06,8.40
2015,11,18,13,07,5.20
2015,11,18,13,08,7.10
2015,11,18,13,09,6.30
2015,11,18,13,10,3.20
2015,11,18,13,11,2.90
2015,11,18,13,12,5.20
2015,11,18,13,13,4.70
2015,11,18,13,14,3.70
2015,11,18,13,15,6.50
2015,11,18,13,16,6.90
2015,11,18,13,17,7.80
2015,11,18,13,18,9.70
2015,11,18,13,19,9.10
2015,11,18,13,20,4.70
2015,11,18,13,21,4.00
2015,11,18,13,22,9.30
2015,11,18,13,23,8.60
2015,11,18,13,24,4.90
2015,11,18,13,25,3.60
2015,11,18,13,26,3.50
2015,11,18,13,27,6.50
2015,11,18,13,28,5.60
2015,11,18,13,29,4.90
2015,11,18,13,30,6.70
2015,11,18,13,31,8.30
2015,11,18,13,32,7.30
2015,11,18,13,33,7.00
2015,11,18,13,34,4.60
2015,11,18,13,35,7.00
2015,11,18,13,36,9.10
2015,11,18,13,37,5.80
2015,11,18,13,38,8.30
2015,11,18,13,39,8.60
2015,11,18,13,40,5.40
2015,11,18,13,41,3.50
2015,11,18,13,42,2.70
2015,11,18,13,43,1.80
2015,11,18,13,44,2.50
2015,11,18,13,45,3.00
2015,11,18,13,46,0.00
2015,11,18,13,47,0.40
2015,11,18,13,48,2.70
2015,11,18,13,49,1.10
2015,11,18,13,50,2.40
2015,11,18,13,51,3.50
2015,11,18,13,52,4.70
2015,11,18,13,53,3.50
2015,11,18,13,54,1.70
2015,11,18,13,55,4.80
2015,11,18,13,56,7.90
2015,11,18,13,57,4.70
2015,11,18,13,58,4.50
2015,11,18,13,59,2.60
2015,11,18,14,00,3.10
2015,11,18,14,01,2.10
2015,11,18,14,02,2.10
2015,11,18,14,03,2.90
2015,11,18,14,04,2.20
2015,11,18,14,05,4.80
2015,11,18,14,06,5.00
2015,11,18,14,07,5.20
2015,11,18,14,08,8.70
2015,11,18,14,09,8.70
2015,11,18,14,10,8.10
2015,11,18,14,11,7.00
2015,11,18,14,12,7.70
2015,11,18,14,13,6.30
2015,11,18,14,14,6.90
2015,11,18,14,15,10.20
2015,11,18,14,16,10.90
2015,11,18,14,17,7.30
2015,11,18,14,18,10.50
2015,11,18,14,19,13.00
2015,11,18,14,20,10.60
2015,11,18,14,21,8.10
2015,11,18,14,22,10.80
2015,11,18,14,23,7.60
2015,11,18,14,24,10.80
2015,11,18,14,25,15.20
2015,11,18,14,26,11.10
2015,11,18,14,27,7.50
2015,11,18,14,28,8.40
2015,11,18,14,29,8.80
2015,11,18,14,30,7.00
2015,11,18,14,31,6.10
2015,11,18,14,32,5.80
2015,11,18,14,33,9.70
2015,11,18,14,34,10.40
2015,11,18,14,35,8.00
2015,11,18,14,36,7.70
2015,11,18,14,37,7.20
2015,11,18,14,38,7.00
2015,11,18,14,39,7.90
2015,11,18,14,40,5.00
2015,11,18,14,41,6.50
2015,11,18,14,42,8.70
2015,11,18,14,43,9.50
2015,11,18,14,44,6.60
2015,11,18,14,45,8.20
2015,11,18,14,46,5.90
2015,11,18,14,47,9.20
2015,11,18,14,48,8.60
2015,11,18,14,49,7.50
2015,11,18,14,50,7.00
2015,11,18,14,51,9.20
2015,11,18,14,52,6.70
2015,11,18,14,53,5.50
2015,11,18,14,54,4.90
2015,11,18,14,55,4.90
2015,11,18,14,56,7.90
2015,11,18,14,57,7.20
2015,11,18,14,58,9.20
2015,11,18,14,59,6.30
2015,11,18,15,00,8.20
2015,11,18,15,01,4.70
2015,11,18,15,02,3.30
2015,11,18,15,03,5.60
2015,11,18,15,04,5.10
2015,11,18,15,05,7.40
2015,11,18,15,06,5.80
2015,11,18,15,07,6.00
2015,11,18,15,08,4.60
2015,11,18,15,09,2.30
2015,11,18,15,10,2.00
2015,11,18,15,11,1.10
2015,11,18,15,12,5.90
2015,11,18,15,13,7.30
2015,11,18,15,14,3.70
2015,11,18,15,15,3.20
2015,11,18,15,16,7.20
2015,11,18,15,17,7.80
2015,11,18,15,18,6.40
2015,11,18,15,19,5.40
2015,11,18,15,20,6.40
2015,11,18,15,21,4.20
2015,11,18,15,22,5.50
2015,11,18,15,23,6.40
2015,11,18,15,24,8.80
2015,11,18,15,25,9.10
2015,11,18,15,26,8.40
2015,11,18,15,27,10.60
2015,11,18,15,28,8.50
2015,11,18,15,29,5.80
2015,11,18,15,30,10.20
2015,11,18,15,31,9.50
2015,11,18,15,32,5.40
2015,11,18,15,33,7.00
2015,11,18,15,34,5.20
2015,11,18,15,35,6.80
2015,11,18,15,36,9.10
2015,11,18,15,37,8.10
2015,11,18,15,38,3.20
2015,11,18,15,39,6.70
2015,11,18,15,40,7.70
2015,11,18,15,41,4.30
2015,11,18,15,42,3.30
2015,11,18,15,43,7.10
2015,11,18,15,44,8.30
2015,11,18,15,45,6.30
2015,11,18,15,46,4.40
2015,11,18,15,47,4.10
2015,11,18,15,48,6.40
2015,11,18,15,49,5.10
2015,11,18,15,50,5.80
2015,11,18,15,51,4.80
2015,11,18,15,52,4.70
2015,11,18,15,53,5.50
2015,11,18,15,54,3.60
2015,11,18,15,55,2.50
2015,11,18,15,56,0.50
2015,11,18,15,57,1.20
2015,11,18,15,58,0.00
2015,11,18,15,59,0.00
2015,11,18,16,00,1.10
2015,11,18,16,01,2.50
2015,11,18,16,02,1.50
2015,11,18,16,03,1.70
2015,11,18,16,04,1.30
2015,11,18,16,05,0.30
2015,11,18,16,06,0.00
2015,11,18,16,07,0.00
2015,11,18,16,08,0.00
2015,11,18,16,09,0.00
2015,11,18,16,10,0.00
2015,11,18,16,11,0.00
2015,11,18,16,12,0.90
2015,11,18,16,13,3.30
2015,11,18,16,14,2.00
2015,11,18,16,15,0.90
2015,11,18,16,16,1.00
2015,11,18,16,17,0.00
2015,11,18,16,18,0.70
2015,11,18,16,19,1.60
2015,11,18,16,20,0.50
2015,11,18,16,21,0.00
2015,11,18,16,22,0.00
2015,11,18,16,23,0.00
2015,11,18,16,24,0.00
2015,11,18,16,25,0.00
2015,11,18,16,26,2.40
2015,11,18,16,27,0.20
2015,11,18,16,28,0.30
2015,11,18,16,29,1.80
2015,11,18,16,30,1.30
2015,11,18,16,31,3.80
2015,11,18,16,32,5.00
2015,11,18,16,33,4.30
2015,11,18,16,34,6.70
2015,11,18,16,35,3.90
2015,11,18,16,36,5.10
2015,11,18,16,37,5.40
2015,11,18,16,38,4.90
2015,11,18,16,39,5.30
2015,11,18,16,40,4.20
2015,11,18,16,41,3.70
2015,11,18,16,42,3.30
2015,11,18,16,43,2.00
2015,11,18,16,44,1.60
2015,11,18,16,45,2.80
2015,11,18,16,46,4.60
2015,11,18,16,47,5.50
2015,11,18,16,48,6.20
2015,11,18,16,49,6.00
2015,11,18,16,50,9.70
2015,11,18,16,51,10.50
2015,11,18,16,52,7.80
2015,11,18,16,53,6.50
2015,11,18,16,54,8.00
2015,11,18,16,55,7.10
2015,11,18,16,56,9.70
2015,11,18,16,57,7.30
2015,11,18,16,58,7.90
2015,11,18,16,59,6.60
2015,11,18,17,00,6.30
2015,11,18,17,01,5.80
2015,11,18,17,02,4.90
2015,11,18,17,03,5.50
2015,11,18,17,04,5.40
2015,11,18,17,05,4.40
2015,11,18,17,06,5.70
2015,11,18,17,07,5.70
2015,11,18,17,08,6.10
2015,11,18,17,09,5.30
2015,11,18,17,10,3.10
2015,11,18,17,11,3.60
2015,11,18,17,12,3.40
2015,11,18,17,13,2.70
2015,11,18,17,14,2.50
2015,11,18,17,15,1.40
2015,11,18,17,16,0.80
2015,11,18,17,17,0.00
2015,11,18,17,18,0.00
2015,11,18,17,19,1.80
2015,11,18,17,20,1.00
2015,11,18,17,21,1.20
2015,11,18,17,22,0.00
2015,11,18,17,23,0.00
2015,11,18,17,24,1.10
2015,11,18,17,25,0.10
2015,11,18,17,26,0.00
2015,11,18,17,27,0.00
2015,11,18,17,28,0.00
2015,11,18,17,29,0.00
2015,11,18,17,30,0.00
2015,11,18,17,31,0.00
2015,11,18,17,32,0.00
2015,11,18,17,33,0.00
2015,11,18,17,34,0.00
2015,11,18,17,35,0.00
2015,11,18,17,36,0.00
2015,11,18,17,37,0.00
2015,11,18,17,38,0.00
2015,11,18,17,39,0.00
2015,11,18,17,40,0.00
2015,11,18,17,41,0.00
2015,11,18,17,42,0.00
2015,11,18,17,43,0.00
2015,11,18,17,44,0.20
2015,11,18,17,45,0.00
2015,11,18,17,46,0.00
2015,11,18,17,47,0.00
2015,11,18,17,48,0.00
2015,11,18,17,49,0.00
2015,11,18,17,50,0.10
2015,11,18,17,51,2.40
2015,11,18,17,52,1.60
2015,11,18,17,53,1.70
2015,11,18,17,54,1.90
2015,11,18,17,55,2.50
2015,11,18,17,56,0.30
2015,11,18,17,57,0.00
2015,11,18,17,58,0.00
2015,11,18,17,59,0.00
2015,11,18,18,00,1.30
2015,11,18,18,01,0.40
2015,11,18,18,02,0.00
2015,11,18,18,03,0.00